Total_Precipitation_Accumulation
1.86 1.98 1.97 1.91 1.92 1.97 2.07 2.27 2.51 2.44 2.23 1.96 1.85 1.75 1.71 1.71 1.81 1.54 1.50 1.46 1.41 1.43 1.43 1.46 1.53 1.72 1.80 1.80 1.67 1.58 1.57 1.63 1.75 1.88 2.10 2.39 2.70 3.00
1.72 1.72 1.68 1.63 1.73 1.75 1.84 1.96 2.16 2.35 2.23 1.83 1.74 1.75 1.75 1.65 1.87 1.66 1.58 1.55 1.48 1.64 1.75 1.69 1.66 1.83 1.98 2.02 1.83 1.66 1.61 1.60 1.63 1.65 1.74 1.94 2.20 2.48
1.36 1.35 1.37 1.45 1.59 1.60 1.62 1.76 1.97 2.17 2.25 1.86 1.69 1.80 1.93 1.87 1.91 1.82 1.68 1.67 1.65 1.99 2.13 2.32 2.09 1.98 2.07 2.11 2.03 1.79 1.63 1.57 1.62 1.68 1.77 1.89 1.98 2.08
1.26 1.31 1.31 1.37 1.49 1.52 1.58 1.64 1.80 2.06 2.23 2.15 1.91 1.92 1.97 1.94 2.01 1.98 1.77 1.63 1.66 2.08 2.30 2.59 2.53 2.25 2.24 2.14 2.03 1.85 1.69 1.57 1.57 1.61 1.66 1.72 1.80 1.89
1.18 1.25 1.32 1.55 1.57 1.55 1.59 1.62 1.72 1.85 2.17 2.21 2.02 2.02 2.06 2.08 2.25 2.09 1.91 1.89 1.60 1.88 2.28 2.58 2.67 2.67 2.72 2.59 2.34 2.00 1.75 1.56 1.42 1.40 1.46 1.51 1.54 1.56
1.17 1.25 1.33 1.50 1.59 1.65 1.63 1.69 1.75 1.91 2.09 2.21 2.15 2.13 2.19 2.24 2.28 2.22 2.08 1.94 1.75 1.67 2.11 2.52 2.81 2.86 3.00 3.09 2.82 2.37 1.99 1.69 1.46 1.31 1.22 1.19 1.25 1.27
1.13 1.14 1.20 1.30 1.42 1.43 1.33 1.45 1.64 1.90 1.97 2.16 2.19 2.21 2.19 2.28 2.17 1.96 1.91 1.88 1.73 1.62 1.82 2.16 2.82 3.13 3.16 3.24 3.14 2.65 2.21 1.86 1.57 1.36 1.23 1.15 1.15 1.18
1.14 1.13 1.08 1.05 1.03 1.03 1.08 1.16 1.34 1.63 1.99 2.24 2.18 2.16 2.06 2.00 2.01 1.95 1.98 2.01 1.95 1.65 1.61 1.84 2.38 3.15 3.35 3.26 3.20 2.61 2.09 1.78 1.59 1.42 1.31 1.24 1.22 1.23
1.30 1.27 1.00 0.86 0.97 0.99 1.04 1.10 1.22 1.40 1.72 2.12 2.22 2.02 1.98 1.93 2.01 2.02 2.09 2.13 2.00 1.71 1.77 1.97 2.28 2.92 3.05 3.00 2.92 2.29 1.84 1.59 1.44 1.33 1.26 1.22 1.18 1.22
1.20 1.22 1.21 1.11 1.03 1.11 1.17 1.24 1.34 1.45 1.55 1.66 2.01 1.86 1.67 1.73 1.87 1.94 2.07 2.12 2.00 1.81 1.86 2.12 2.31 2.74 2.68 2.72 2.60 2.11 1.73 1.53 1.34 1.23 1.18 1.17 1.16 1.18
1.06 1.04 1.01 1.05 1.15 1.31 1.41 1.62 1.72 1.81 1.67 1.81 1.96 1.90 1.76 1.74 1.69 1.84 2.16 2.24 2.09 1.91 1.91 2.21 2.33 2.41 2.48 2.51 2.23 2.02 1.71 1.51 1.35 1.23 1.17 1.12 1.08 1.14
1.10 1.07 0.96 0.91 1.06 1.24 1.46 1.79 1.94 2.01 1.85 1.93 2.17 2.18 1.99 2.01 2.02 1.97 2.22 2.35 2.25 2.14 1.89 2.02 2.19 2.21 2.38 2.27 2.08 1.92 1.82 1.78 1.57 1.38 1.28 1.14 1.04 1.01
1.06 1.10 1.05 0.97 1.02 1.26 1.48 1.70 1.86 1.90 1.96 2.06 2.07 2.06 2.13 2.15 2.15 2.13 2.18 2.23 2.22 2.09 1.76 1.94 2.14 2.19 2.28 2.26 2.19 2.17 2.10 2.00 1.82 1.71 1.64 1.47 1.27 1.13
1.11 1.10 1.12 1.10 1.12 1.32 1.47 1.71 1.92 1.99 1.98 2.07 1.95 1.83 1.80 1.82 1.90 1.92 1.96 1.95 1.91 1.85 1.80 1.94 2.21 2.37 2.32 2.19 2.28 2.27 2.33 2.36 2.22 2.10 1.97 1.84 1.66 1.57
1.05 1.12 1.13 1.12 1.21 1.47 1.65 1.84 2.02 2.11 2.17 2.06 1.85 1.72 1.61 1.58 1.59 1.71 1.82 1.85 1.75 1.60 1.52 1.70 2.04 2.26 2.35 2.28 2.36 2.39 2.48 2.60 2.49 2.45 2.31 2.14 1.99 1.83
0.96 1.12 1.21 1.24 1.37 1.65 1.85 2.04 2.13 2.08 1.95 1.90 1.80 1.71 1.58 1.53 1.57 1.55 1.62 1.70 1.73 1.67 1.55 1.57 1.87 2.23 2.36 2.22 2.28 2.39 2.49 2.78 2.68 2.46 2.34 2.32 2.22 2.03
0.90 1.09 1.25 1.36 1.52 1.72 1.91 1.98 1.98 1.90 1.82 1.65 1.59 1.67 1.66 1.58 1.58 1.54 1.55 1.58 1.66 1.68 1.68 1.68 1.75 1.90 1.96 2.06 2.22 2.27 2.40 2.59 2.60 2.41 2.27 2.31 2.32 2.16
0.88 1.10 1.27 1.37 1.52 1.70 1.85 1.86 1.80 1.72 1.63 1.53 1.46 1.41 1.43 1.42 1.47 1.49 1.44 1.45 1.50 1.45 1.42 1.49 1.63 1.79 1.82 1.83 1.99 2.15 2.22 2.37 2.36 2.22 2.05 2.09 2.26 2.24
0.85 1.07 1.22 1.35 1.54 1.65 1.66 1.64 1.65 1.58 1.50 1.45 1.40 1.32 1.25 1.22 1.23 1.23 1.22 1.26 1.24 1.20 1.18 1.24 1.38 1.58 1.72 1.86 1.84 1.89 2.04 2.13 2.07 1.93 1.84 1.90 2.10 2.22
0.82 1.04 1.20 1.31 1.42 1.51 1.56 1.58 1.55 1.49 1.41 1.37 1.42 1.39 1.29 1.22 1.13 1.12 1.13 1.11 1.10 1.08 1.06 1.02 0.98 1.12 1.34 1.50 1.65 1.69 1.67 1.71 1.74 1.77 1.70 1.73 1.86 1.92
0.85 1.01 1.13 1.26 1.28 1.27 1.32 1.37 1.41 1.41 1.35 1.31 1.29 1.29 1.23 1.17 1.07 0.99 0.97 0.89 0.92 1.02 1.01 0.93 0.86 0.91 1.04 1.20 1.35 1.37 1.34 1.45 1.49 1.48 1.46 1.52 1.57 1.54
0.84 0.95 1.04 1.10 1.10 1.09 1.09 1.11 1.16 1.21 1.20 1.15 1.13 1.15 1.13 1.07 1.02 0.97 0.95 0.93 0.92 0.90 0.86 0.84 0.87 0.92 1.00 1.16 1.26 1.29 1.25 1.19 1.24 1.27 1.28 1.31 1.33 1.50
0.80 0.82 0.87 0.91 0.92 0.94 0.96 0.99 1.03 1.06 1.08 1.08 1.03 1.02 1.00 1.00 0.95 0.93 0.94 0.91 0.88 0.85 0.84 0.86 0.86 0.86 0.87 0.95 1.08 1.13 1.13 1.13 1.15 1.16 1.18 1.27 1.25 1.29